Flag for Brazil Weather past 2 weeks in Garanhuns, Pernambuco, Brazil

Now
79 °F

Scattered clouds.


Feels Like: 81 °F
Forecast: 64 / 80 °F
Wind: 10 mph from Southeast

Location: Maceio Aeroporto

Current Time: Oct 22, 2014 at 9:47:32 AM

Latest Report: Oct 22, 2014 at 9:00 AM


Visibility: N/A

Pressure: 30.04 "Hg

Humidity: 70%

Dew point: 68 °F

Location of GaranhunsLocation

Historic Weather in Garanhuns — Graph

°F

Garanhuns temperature yesterday

Maximum temperature yesterday: 82 °F (at 11:00 AM)
Minimum temperature yesterday: 66 °F (at 4:00 AM)
Average temperature yesterday: 73 °F

Past Weeks' High & Low Weather Summary

 TemperatureHumidityPressure
High82 °F (Oct 13, 11:00 AM)100% (Oct 8, 12:00 AM)30.09 "Hg (Oct 8, 12:00 AM)
Low64 °F (Oct 16, 3:00 AM)55% (Oct 13, 11:00 AM)29.89 "Hg (Oct 20, 1:00 PM)
Average73 °F84%30.01 "Hg
* Reported Oct 7 9:00 AM — Oct 22 9:00 AM, Garanhuns, Weather by CustomWeather, © 2014

Note: Actual official high and low records may vary slightly from our data, if they occured in-between our weather recording intervals... More about our weather records

Advertising

Garanhuns weather history for previous 24 hours

 ConditionsComfort  
Time TempWeatherWind HumidityBarometerVisibility
9:00 AM
Oct 22
79 °FScattered clouds.10 mph70%30.04 "HgN/A
8:00 AM79 °FPassing clouds.8 mph70%30.04 "HgN/A
7:00 AM75 °FPassing clouds.No wind83%30.01 "HgN/A
6:00 AM68 °FPassing clouds.No wind100%29.98 "HgN/A
5:00 AM64 °FPassing clouds.2 mph100%29.98 "HgN/A
4:00 AM66 °FPassing clouds.2 mph94%29.95 "HgN/A
3:00 AM66 °FPassing clouds.3 mph100%29.95 "HgN/A
1:00 AM66 °FPassing clouds.3 mph100%29.98 "HgN/A
12:00 AM70 °FPassing clouds.3 mph94%29.98 "HgN/A
11:00 PM
Oct 21
68 °FPassing clouds.3 mph94%29.98 "HgN/A
10:00 PM68 °FPassing clouds.3 mph94%30.01 "HgN/A
9:00 PM68 °FPassing clouds.3 mph100%30.01 "HgN/A
8:00 PM70 °FPassing clouds.5 mph94%29.98 "HgN/A
7:00 PM73 °FPassing clouds.7 mph83%29.98 "HgN/A
6:00 PM73 °FPassing clouds.8 mph83%29.95 "HgN/A
5:00 PM77 °FScattered clouds.13 mph74%29.95 "HgN/A
4:00 PM77 °FScattered clouds.14 mph74%29.92 "HgN/A
3:00 PM79 °FScattered clouds.16 mph70%29.92 "HgN/A
2:00 PM81 °FScattered clouds.17 mph62%29.92 "HgN/A
1:00 PM81 °FScattered clouds.17 mph62%29.95 "HgN/A
12:00 PM81 °FScattered clouds.15 mph62%29.98 "HgN/A
11:00 AM82 °FScattered clouds.14 mph62%29.98 "HgN/A
10:00 AM81 °FScattered clouds.13 mph62%29.98 "HgN/A
9:00 AM77 °FScattered clouds.6 mph74%29.98 "HgN/A
Weather by CustomWeather, © 2014

See weather overviewHow to use our weather pages